AirNav   Air Wisconsin pilot careers
 
 797 users online  

21OR KATU Heliport
Portland, Oregon, USA

GOING TO PORTLAND?


FAA INFORMATION EFFECTIVE 28 MARCH 2019

Location

FAA Identifier: 21OR
Lat/Long: 45-31-37.4260N / 122-38-38.3430W
45-31.623767N / 122-38.639050W
45.5270628 / -122.6439842
(estimated)
Elevation: 160 ft. / 49 m (estimated)
Variation: 19E (1985)
From city: 3 miles N of PORTLAND, OR
Time zone: UTC -7 (UTC -8 during Standard Time)
Zip code: 97232

Heliport Operations

Heliport use: Private use. Permission required prior to landing
Activation date: 03/1982
Control tower: no
ARTCC: SEATTLE CENTER
FSS: MC MINNVILLE FLIGHT SERVICE STATION
Attendance: UNATNDD
Wind indicator: lighted
Segmented circle: no
Lights: FOR HELIPAD LGTS PHONE 503-231-8853.

Heliport Communications

WX ASOS at PDX (4 nm NE): PHONE (503) 493-7687
WX ASOS at VUO (6 nm N): 135.125 (360-696-1280)
WX ASOS at TTD (10 nm E): 135.625 (503-492-2887)
WX ASOS at HIO (13 nm W): PHONE 503-640-2984
WX ASOS at SPB (17 nm NW): 135.875 (503-543-6401)
WX ASOS at UAO (18 nm S): PHONE 503-678-3011

Nearby radio navigation aids

VOR radial/distance  VOR name  Freq  Var
BTGr168/13.4BATTLE GROUND VORTAC116.6021E
UBGr032/17.5NEWBERG VOR/DME117.4021E

 
NDB name  Hdg/Dist  Freq  Var  ID
BANKS094/18.035616EPND .--. -. -..
KELSO146/39.325617ELSO .-.. ... ---

Heliport Services

Runway Information

Helipad H1

Dimensions: 46 x 46 ft. / 14 x 14 m
Surface: concrete, in fair condition
Latitude: 45-31.623767N
Longitude: 122-38.639050W
Elevation: 160.0 ft.
Traffic pattern: leftleft

Heliport Ownership and Management from official FAA records

Ownership: Privately-owned
Owner: FISHER BROADCASTING INC.
2153 N E SANDY BLVD
PORTLAND, OR 97232
Phone 503-231-4222
Manager: TIM ONDRACEK
2153 NE SANDY BLVD
PORTLAND, OR 97232
Phone (503) 231-4256

Additional Remarks

A40 RWY H1 - FLOODLIGHTS.
A52-H1 50' STACK 750' NW; 20' POLE 325 NE; 40' ANT 1000' NW.
A33 RWY H1 - ROOFTOP.
FOR CD CTC PORTLAND APCH AT 503-493-7545.

Instrument Procedures

There are no published instrument procedures at 21OR.

Some nearby airports with instrument procedures:

KPDX - Portland International Airport (4 nm NE)
KVUO - Pearson Field Airport (6 nm N)
KTTD - Portland-Troutdale Airport (10 nm E)
KHIO - Portland-Hillsboro Airport (13 nm W)
KSPB - Scappoose Industrial Airpark (17 nm NW)
KUAO - Aurora State Airport (18 nm S)
 
Loc | Ops | Rwys | IFR | FBO | Links
Com | Nav | Svcs | Stats | Notes
Area around 21OR (KATU Heliport)
 
Road maps at: MapQuest Bing Google
 
Aerial photo
WARNING: Photo may not be current or correct
Aerial photo of 21OR (KATU Heliport)
Do you have a better or more recent aerial photo of KATU Heliport that you would like to share? If so, please send us your photo.

 
Sectional chart

 
Airport distance calculator
Flying to KATU Heliport? Find the distance to fly.

From to 21OR

Sunrise and sunset
Times for 19-Apr-2019
 Local
(UTC-7)
 Zulu
(UTC)
Morning civil twilight05:4712:47
Sunrise06:1913:19
Sunset20:0103:01
Evening civil twilight20:3203:32

Current date and time
Zulu (UTC)  20-Apr-2019 01:26:02
Local (UTC-7)  19-Apr-2019 18:26:02
 
METAR
KPDX 
4nm NE 
200053Z 32009KT 10SM -RA FEW013 SCT032 OVC080 13/11 A2995 RMK AO2 SLP141 P0004 T01330111
KVUO 
5nm N 
200053Z AUTO 32007KT 10SM -RA BKN080 OVC090 13/11 A2995 RMK AO2 SLP142 P0005 T01280111
KTTD 
10nm E 
200053Z VRB03KT 8SM -RA FEW012 BKN023 OVC070 13/12 A2994 RMK AO2 SLP137 P0004 T01330122
KHIO 
13nm W 
200053Z 33003KT 9SM -RA SCT008 BKN040 OVC070 13/11 A2994 RMK AO2 SLP138 P0004 T01280111
KSPB 
17nm NW 
200053Z AUTO 35007KT 10SM -RA FEW021 BKN026 OVC080 14/11 A2994 RMK AO2 SLP137 P0001 T01390106
KUAO 
17nm S 
200100Z 34006KT 6SM -RA BR FEW006 BKN013 OVC044 13/12 A2996 RMK AO2 P0001 T01280117
TAF
KPDX 
4nm NE 
200006Z 2000/2024 32010KT P6SM -SHRA SCT010 BKN045 OVC050 TEMPO 2000/2002 5SM -SHRA BR SCT010 OVC035 FM200400 32007KT P6SM VCSH FEW015 SCT025 BKN050 FM201000 30005KT P6SM FEW008 SCT015 FM201700 30005KT P6SM SCT028 BKN035
KTTD 
10nm E 
192214Z 1922/2018 32008KT 6SM -RA SCT015 SCT030 OVC050 TEMPO 1922/2002 5SM -RA BKN015 OVC030 FM200200 32007KT P6SM FEW015 SCT025 BKN050 FM201000 30005KT 6SM BR FEW008 SCT015 FM201700 24005KT P6SM FEW025 SCT040
KHIO 
13nm W 
192211Z 1922/2018 32008KT 6SM -RA SCT015 BKN035 OVC040 TEMPO 1922/2002 5SM -RA BKN015 OVC030 FM200200 32007KT P6SM VCSH FEW015 SCT025 BKN050 FM201000 30005KT 6SM BR FEW008 SCT015
KUAO 
17nm S 
200017Z 2000/2024 31006KT P6SM -RA SCT015 OVC024 TEMPO 2000/2002 2SM -SHRA BR BKN008 OVC015 FM201500 36005KT P6SM SCT012 BKN021 FM202200 28004KT P6SM SCT028 BKN035
NOTAMs
Click for the latest NOTAMs
NOTAMs are issued by the DoD/FAA and will open in a separate window not controlled by AirNav.

 

 
 

Would you like to see your business listed on this page?

 If your business provides an interesting product or service to pilots, flight crews, aircraft, or users of the KATU Heliport, you should consider listing it here.  To start the listing process, click on the button below
 
Add a business
 

Other Pages about KATU Heliport

Update a link
 
Copyright © AirNav, LLC. All rights reserved. Privacy Policy  Contact